This is the latest recevied weather packets stored in our database for station/object K7KAR-2. If no packets are shown the sender has not sent any weather packets the latest 10 day(s).
| Time | Temp. | Humidity | Pressure | Rain* | Wind** | Luminosity | Snow |
|---|---|---|---|---|---|---|---|
| 1777831698 | 20° C | 16% | 1011.9 hPa | 0 mm | - | 837 W/m² | - |
| 1777831397 | 20° C | 20% | 1012.4 hPa | 0 mm | - | 832 W/m² | - |
| 1777831093 | 20° C | 22% | 1012.6 hPa | 0 mm | - | 829 W/m² | - |
| 1777830791 | 20° C | 22% | 1012.8 hPa | 0 mm | - | 828 W/m² | - |
| 1777830486 | 18.33° C | 23% | 1012.7 hPa | 0 mm | - | 837 W/m² | - |
| 1777830185 | 18.89° C | 25% | 1012.7 hPa | 0 mm | - | 842 W/m² | - |
| 1777829880 | 18.89° C | 24% | 1013.2 hPa | 0 mm | - | 849 W/m² | - |
| 1777829576 | 18.89° C | 28% | 1012.8 hPa | 0 mm | - | 842 W/m² | - |
| 1777829273 | 17.78° C | 30% | 1013.3 hPa | 0 mm | - | 846 W/m² | - |
| 1777828971 | 18.89° C | 29% | 1013.2 hPa | 0 mm | - | 849 W/m² | - |
| 1777828667 | 18.33° C | 34% | 1013.3 hPa | 0 mm | - | 847 W/m² | - |
| 1777828364 | 18.33° C | 32% | 1013.3 hPa | 0 mm | - | 839 W/m² | - |
| 1777828061 | 18.33° C | 32% | 1013.6 hPa | 0 mm | - | 853 W/m² | - |
| 1777827758 | 17.78° C | 35% | 1013.5 hPa | 0 mm | - | 860 W/m² | - |
| 1777827455 | 17.78° C | 34% | 1013.5 hPa | 0 mm | - | 867 W/m² | - |
| 1777827152 | 17.78° C | 33% | 1013.3 hPa | 0 mm | - | 866 W/m² | - |
| 1777826848 | 17.22° C | 35% | 1013.6 hPa | 0 mm | - | 878 W/m² | - |
| 1777826546 | 16.67° C | 37% | 1013.8 hPa | 0 mm | - | 874 W/m² | - |
| 1777826241 | 17.22° C | 36% | 1013.6 hPa | 0 mm | - | 896 W/m² | - |
| 1777825940 | 16.67° C | 37% | 1013.9 hPa | 0 mm | - | 905 W/m² | - |
| 1777825636 | 16.67° C | 38% | 1014 hPa | 0 mm | - | 907 W/m² | - |
| 1777825335 | 16.67° C | 38% | 1013.9 hPa | 0 mm | - | 913 W/m² | - |
| 1777825031 | 16.67° C | 39% | 1014 hPa | 0 mm | - | 923 W/m² | - |
| 1777824727 | 16.67° C | 42% | 1014 hPa | 0 mm | - | 934 W/m² | - |
| 1777824424 | 16.11° C | 43% | 1014.1 hPa | 0 mm | - | 919 W/m² | - |
* Rain latest hour (hover to see other rain measurements)
** Current wind speed in m/s (hover to see current wind gust speed)